Location: Geroldsau
(48.7259°N, 8.2466°E)
Time: 09:15:24
(UTC+00:00)

SL-16 R/B - Pass Details

Date: 20 June 2021
Orbit: 985 x 1007 km, 99.5° (Epoch: 26 July)

Event Time Altitude Azimuth Distance (km) Brightness Sun altitude
Exits shadow 00:59:51 12° 162° (SSE) 2,598 4.3 -15.0°
Maximum altitude 01:05:38 90° 123° (ESE) 999 2.5 -14.6°
Drops below altitude 10° 01:11:52 10° 344° (NNW) 2,759 5.6 -14.2°
Sets 01:14:20 0° 345° (NNW) 3,710 6.4 -14.1°
